Flag for United Kingdom Weather past 2 weeks in Cheltenham, England, United Kingdom

Now
54 °F

Partly sunny.


Feels Like: 54 °F
Forecast: 52 / 74 °F
Wind: No wind

Location: Staverton Private

Current Time: Sep 2, 2014 at 9:47:38 AM

Latest Report: Sep 2, 2014 at 9:20 AM


Visibility: 6 mi

Pressure: 30.24 "Hg

Humidity: 94%

Dew point: 52 °F

Location of CheltenhamLocation

Historic Weather in Cheltenham — Graph

°F

Cheltenham temperature yesterday

Maximum temperature yesterday: 70 °F (at 12:50 PM)
Minimum temperature yesterday: 61 °F (at 6:50 AM)
Average temperature yesterday: 66 °F

Past Weeks' High & Low Weather Summary

 TemperatureHumidityPressure
High70 °F (Aug 31, 3:20 PM)100% (Aug 25, 10:50 AM)30.24 "Hg (Aug 25, 10:50 AM)
Low45 °F (Sep 2, 6:50 AM)46% (Aug 31, 3:50 PM)29.53 "Hg (Aug 25, 5:20 PM)
Average61 °F75%29.93 "Hg
* Reported Aug 18 8:20 AM — Sep 2 8:50 AM, Cheltenham, Weather by CustomWeather, © 2014

Note: Actual official high and low records may vary slightly from our data, if they occured in-between our weather recording intervals... More about our weather records

Advertising

Cheltenham weather history for previous 24 hours

 ConditionsComfort  
Time TempWeatherWind HumidityBarometerVisibility
8:50 AM
Sep 2
52 °FPartly sunny.No wind100%30.24 "Hg5 mi
8:20 AM52 °FPartly sunny.No wind94%30.24 "Hg5 mi
7:50 AM50 °FPartly sunny.No wind94%30.24 "Hg5 mi
7:20 AM46 °FPassing clouds.No wind100%30.21 "Hg6 mi
6:50 AM45 °FPassing clouds.No wind100%30.21 "Hg6 mi
7:20 PM
Sep 1
64 °FPassing clouds.10 mph68%30.12 "HgN/A
6:50 PM66 °FPassing clouds.6 mph73%30.12 "HgN/A
6:20 PM66 °FScattered clouds.7 mph73%30.12 "HgN/A
5:20 PM68 °FScattered clouds.6 mph69%30.09 "HgN/A
4:50 PM70 °FScattered clouds.5 mph69%30.09 "HgN/A
4:20 PM68 °FScattered clouds.7 mph73%30.09 "HgN/A
3:50 PM70 °FScattered clouds.6 mph69%30.09 "HgN/A
3:20 PM66 °FScattered clouds.9 mph78%30.09 "HgN/A
2:50 PM68 °FScattered clouds.8 mph78%30.09 "HgN/A
2:20 PM68 °FScattered clouds.6 mph83%30.09 "HgN/A
1:50 PM68 °FScattered clouds.8 mph78%30.09 "HgN/A
1:20 PM70 °FPartly sunny.10 mph83%30.09 "HgN/A
12:50 PM70 °FPartly sunny.9 mph83%30.09 "HgN/A
12:20 PM68 °FPartly sunny.7 mph88%30.09 "HgN/A
11:50 AM66 °FPartly sunny.8 mph94%30.09 "HgN/A
11:20 AM66 °FBroken clouds.8 mph94%30.09 "HgN/A
10:50 AM64 °FPartly sunny.7 mph100%30.12 "HgN/A
10:20 AM64 °FDrizzle. Partly sunny.7 mph94%30.09 "Hg3 mi
9:50 AM64 °FPartly sunny.8 mph94%30.09 "Hg6 mi
9:20 AM64 °FBroken clouds.9 mph88%30.09 "Hg5 mi
Weather by CustomWeather, © 2014

See weather overviewHow to use our weather pages